User: anonymous   Login
Location: El Conde
(10.2895°N, 67.2409°W)
Time: 16:44:02
(UTC+00:00)
Language:

Cosmos 1812 - Orbit

View from above orbital plane
View from above orbital plane
View from above satellite
View from above satellite

Ground track
Ground track

The orbit data is extracted from the following two-line orbital elements,

1 17295U 87003A   24201.76905786  .00017866  00000-0  55806-3 0  9994
2 17295  82.5076 103.5987 0004534 103.0240 257.1508 15.33050604 51510
Epoch (UTC): 19 July 2024 18:27:26
Eccentricity: 0.0004534
inclination: 82.5076°
perigee height: 463 km
apogee height: 470 km
right ascension of ascending node: 103.5987°
argument of perigee: 103.0240°
revolutions per day: 15.33050604
mean anomaly at epoch: 257.1508°
orbit number at epoch: 5151

The dashed part of the orbit path shows where the satellite is in the earth's shadow,  

DLR